User: anonymous   Login
Location: Shepherdstown, WV
(39.4326°N, 77.8042°W)
Time: 11:55:11
(UTC-04:00)
Language:

Transit 2A - Orbit

View from above orbital plane
View from above orbital plane
View from above satellite
View from above satellite

Ground track
Ground track

The orbit data is extracted from the following two-line orbital elements,

1 00045U 60007A   21208.74812646 -.00000071  00000-0  92527-5 0  9992
2 00045  66.6951  32.8311 0252764  19.0070 342.0254 14.33728125123939
Epoch (UTC): 27 July 2021 17:57:18
Eccentricity: 0.0252764
inclination: 66.6951°
perigee height: 598 km
apogee height: 960 km
right ascension of ascending node: 32.8311°
argument of perigee: 19.0070°
revolutions per day: 14.33728125
mean anomaly at epoch: 342.0254°
orbit number at epoch: 12393

The dashed part of the orbit path shows where the satellite is in the earth's shadow,  

DLR